Location: Ferchesar
(52.6477°N, 12.4298°E)
Time: 11:34:56
(UTC+01:00)

Altair - Pass Details

Date: 11 December 2021
Orbit: 1501 x 1683 km, 47.2° (Epoch: 20 January)

Event Time Altitude Azimuth Distance (km) Brightness Sun altitude
Rises 17:31:50 0° 271° (W) 4,761 11.5 -13.5°
Reaches altitude 10° 17:35:00 10° 268° (W) 3,752 10.8 -14.0°
Maximum altitude 17:44:11 60° 192° (SSW) 1,713 7.9 -15.3°
Drops below altitude 10° 17:53:08 10° 116° (ESE) 3,654 9.0 -16.6°
Enters shadow 17:53:27 - 116° (ESE) 3,754 9.1 -16.6°
